Northeastern University MA US WEATHERSTEM current weather conditions

sailwx.info

Wind from 359 at 5 knots gusting 13

Air temperature 32.0° C
Dewpoint 21.5° C

Last reported at 2020-Aug-12 17:00 UTC.
Time now 2020-Aug-12 18:16 UTC

Location: N 42°20' W 071°05'.
View on Google Maps.

See reports from other nearby stations

  
Tides and Currents Weather Stations Pressure Air Temp Water Temp Dewpoint Dewpoint Depression Visibility Wind Speed Wind Dir Waves Ship Positions
date/time (UTC)wind fromknots sea level pressurealtimeterstation pressurevisibilityair tempwater tempwave heightnotes
2020-Aug-12 17:00 359 5 gusting 13 32.0
2020-Aug-12 16:50 014 1 gusting 6 32.1
2020-Aug-12 16:40 359 2 gusting 6 31.7
2020-Aug-12 16:30 012 1 gusting 9 31.1
2020-Aug-12 16:20 359 4 gusting 8 31.2
2020-Aug-12 16:10 043 1 gusting 5 30.8
2020-Aug-12 16:00 359 3 gusting 7 30.4
2020-Aug-12 15:50 359 4 gusting 10 30.8
2020-Aug-12 15:40 359 2 gusting 9 30.4
2020-Aug-12 15:30 359 2 gusting 6 30.2
2020-Aug-12 15:10 004 6 gusting 10 29.6
2020-Aug-12 14:50 359 4 gusting 8 29.1
2020-Aug-12 14:40 010 4 gusting 8 28.7
2020-Aug-12 14:30 359 7 gusting 9 28.7
2020-Aug-12 14:20 014 4 gusting 11 28.3
2020-Aug-12 14:10 004 8 gusting 9 28.3
2020-Aug-12 14:00 359 1 gusting 9 27.8
2020-Aug-12 13:40 359 7 gusting 11 27.8
2020-Aug-12 13:30 012 6 gusting 11 27.8
2020-Aug-12 13:20 359 5 gusting 10 27.6
2020-Aug-12 13:10 066 1 gusting 8 27.4
2020-Aug-12 13:00 359 3 gusting 11 27.1
2020-Aug-12 12:50 359 3 gusting 8 27.3
2020-Aug-12 12:40 359 4 gusting 9 27.2
2020-Aug-12 12:30 359 1 gusting 8 27.1
2020-Aug-12 12:20 359 3 gusting 8 27.1
2020-Aug-12 12:10 004 1 gusting 8 26.9
2020-Aug-12 12:00 083 1 gusting 6 26.7
2020-Aug-12 11:50 359 1 gusting 6 26.3
2020-Aug-12 11:40 016 4 gusting 7 25.8
2020-Aug-12 11:30 004 1 gusting 6 25.7
2020-Aug-12 11:20 359 1 gusting 5 25.6
2020-Aug-12 11:10 359 1 gusting 4 25.6
2020-Aug-12 11:00 359 3 gusting 6 25.4
2020-Aug-12 10:50 228 4 gusting 6 25.3
2020-Aug-12 10:30 058 0 gusting 4 25.4
2020-Aug-12 10:20 038 0 gusting 3 25.3
2020-Aug-12 10:10 359 0 gusting 6 25.2
2020-Aug-12 10:00 359 1 gusting 5 25.3
2020-Aug-12 09:30 147 4 gusting 6 25.4
2020-Aug-12 09:20 359 1 gusting 6 25.4
2020-Aug-12 09:10 228 1 gusting 8 25.4
2020-Aug-12 09:00 359 1 gusting 8 25.4
2020-Aug-12 08:50 359 3 gusting 8 25.4
2020-Aug-12 08:30 359 4 gusting 6 25.4
2020-Aug-12 08:20 359 2 gusting 8 25.3
2020-Aug-12 08:10 157 2 gusting 8 25.3
2020-Aug-12 08:00 233 2 gusting 14 25.2
2020-Aug-12 07:50 067 1 gusting 8 25.2
2020-Aug-12 07:30 176 2 gusting 6 25.3
2020-Aug-12 07:20 077 3 gusting 7 25.3
2020-Aug-12 07:10 070 2 gusting 9 25.3
2020-Aug-12 07:00 170 1 gusting 8 25.3
2020-Aug-12 06:50 233 5 gusting 10 25.3
2020-Aug-12 06:30 359 1 gusting 6 25.3
2020-Aug-12 06:20 359 3 gusting 7 25.3
2020-Aug-12 06:10 359 2 gusting 8 25.3
2020-Aug-12 06:00 238 4 gusting 12 25.3
2020-Aug-12 05:50 359 5 gusting 13 25.3
2020-Aug-12 05:30 131 2 gusting 13 25.3
2020-Aug-12 05:20 359 4 gusting 9 25.3
2020-Aug-12 05:10 359 7 gusting 12 25.3
2020-Aug-12 05:00 359 5 gusting 8 25.3
2020-Aug-12 04:50 053 5 gusting 10 25.3
2020-Aug-12 04:30 233 1 gusting 8 25.4
2020-Aug-12 04:20 233 2 gusting 12 25.5
2020-Aug-12 04:10 233 2 gusting 11 25.5
2020-Aug-12 04:00 107 6 gusting 11 25.5
2020-Aug-12 03:50 359 6 gusting 12 25.5
2020-Aug-12 03:30 235 2 gusting 6 25.5
2020-Aug-12 03:20 187 2 gusting 7 25.5
2020-Aug-12 03:10 359 7 gusting 8 25.5
2020-Aug-12 03:00 359 6 gusting 10 25.5
2020-Aug-12 02:50 359 2 gusting 10 25.5
2020-Aug-12 02:30 231 2 gusting 10 25.6
2020-Aug-12 02:20 167 3 gusting 13 25.7
2020-Aug-12 02:10 359 6 gusting 14 25.9
2020-Aug-12 02:00 168 3 gusting 10 25.9
2020-Aug-12 01:50 359 6 gusting 15 26.1
2020-Aug-12 01:30 168 9 gusting 10 26.4
2020-Aug-12 01:20 359 4 gusting 13 26.6
2020-Aug-12 01:10 359 7 gusting 12 26.8
2020-Aug-12 01:00 243 2 gusting 13 27.1
2020-Aug-12 00:50 359 2 gusting 10 27.3
2020-Aug-12 00:30 166 6 gusting 13 27.8
2020-Aug-12 00:20 133 9 gusting 13 28.1
2020-Aug-12 00:10 359 1 gusting 12 28.2
2020-Aug-12 00:00 095 6 gusting 15 28.4
2020-Aug-11 23:50 168 12 gusting 12 28.6
2020-Aug-11 23:30 132 8 gusting 13 29.2
2020-Aug-11 23:20 145 7 gusting 18 29.4
2020-Aug-11 23:10 135 6 gusting 14 29.8
2020-Aug-11 23:00 164 9 gusting 19 29.9
2020-Aug-11 22:50 236 7 gusting 15 30.0
2020-Aug-11 22:30 163 13 gusting 17 30.6
2020-Aug-11 22:20 140 11 gusting 19 30.8
2020-Aug-11 22:10 359 4 gusting 19 31.1
2020-Aug-11 22:00 241 9 gusting 20 31.4
2020-Aug-11 21:50 127 2 gusting 14 31.6
2020-Aug-11 21:30 359 5 gusting 18 31.7
2020-Aug-11 21:20 359 9 gusting 21 31.7
2020-Aug-11 21:10 359 13 gusting 19 31.9
2020-Aug-11 21:00 141 5 gusting 25 32.2
2020-Aug-11 20:50 145 6 gusting 20 32.6
2020-Aug-11 20:30 172 6 gusting 20 32.7
2020-Aug-11 20:20 359 4 gusting 22 32.7
2020-Aug-11 20:10 167 20 gusting 20 32.6
2020-Aug-11 20:00 158 17 gusting 20 32.8
2020-Aug-11 19:50 091 3 gusting 17 32.8
2020-Aug-11 19:30 359 5 gusting 19 33.5
2020-Aug-11 19:20 226 4 gusting 19 33.2
2020-Aug-11 19:10 120 7 gusting 15 33.0
2020-Aug-11 19:00 151 13 gusting 16 33.2
2020-Aug-11 18:50 153 6 gusting 18 33.2
2020-Aug-11 18:30 113 3 gusting 14 33.4
2020-Aug-11 18:20 359 2 gusting 13 33.4
2020-Aug-11 18:10 359 3 gusting 15 33.2
2020-Aug-11 18:00 359 1 gusting 18 32.6
2020-Aug-11 17:50 247 6 gusting 15 32.8
2020-Aug-11 17:30 016 2 gusting 12 33.3
2020-Aug-11 17:20 027 3 gusting 6 33.2
2020-Aug-11 17:10 237 4 gusting 9 33.2
2020-Aug-11 17:00 359 2 gusting 9 32.9
2020-Aug-11 16:50 359 2 gusting 7 32.8
2020-Aug-11 16:30 079 2 gusting 10 32.4
2020-Aug-11 16:20 359 4 gusting 7 32.6
2020-Aug-11 16:10 143 2 gusting 13 33.1
2020-Aug-11 16:00 043 3 gusting 10 33.1
2020-Aug-11 15:50 070 5 gusting 6 33.1
2020-Aug-11 15:30 243 3 gusting 8 32.2
2020-Aug-11 15:20 004 2 gusting 9 31.8
2020-Aug-11 15:10 359 5 gusting 7 31.7
2020-Aug-11 15:00 359 1 gusting 6 31.6
2020-Aug-11 14:50 359 2 gusting 7 31.7
2020-Aug-11 14:30 121 2 gusting 7 30.8
2020-Aug-11 14:20 359 3 gusting 7 30.6
2020-Aug-11 14:10 359 4 gusting 6 30.2
2020-Aug-11 14:00 242 2 gusting 6 29.9
2020-Aug-11 13:50 359 3 gusting 7 29.7
2020-Aug-11 13:30 004 0 gusting 6 29.4
2020-Aug-11 13:20 166 3 gusting 6 29.1
2020-Aug-11 13:10 359 2 gusting 6 29.0
2020-Aug-11 13:00 359 2 gusting 5 28.4
2020-Aug-11 12:50 359 2 gusting 6 27.8
2020-Aug-11 12:30 359 3 gusting 6 27.1
2020-Aug-11 12:20 359 2 gusting 4 26.7
2020-Aug-11 12:10 243 1 gusting 4 26.4
2020-Aug-11 12:00 359 2 gusting 7 26.2
2020-Aug-11 11:50 359 3 gusting 6 25.9
2020-Aug-11 11:30 172 2 gusting 6 25.3
2020-Aug-11 11:20 173 0 gusting 6 25.1
2020-Aug-11 11:10 359 2 gusting 6 24.8
2020-Aug-11 11:00 241 2 gusting 6 24.7
2020-Aug-11 10:50 238 1 gusting 6 24.5
2020-Aug-11 10:30 359 0 gusting 6 24.2
2020-Aug-11 10:20 241 4 gusting 5 24.1
2020-Aug-11 10:00 359 1 gusting 4 24.2
2020-Aug-11 09:50 359 1 gusting 3 24.2
2020-Aug-11 09:30 359 3 gusting 4 24.2
2020-Aug-11 09:20 239 1 gusting 5 24.3
2020-Aug-11 09:10 359 1 gusting 5 24.3
2020-Aug-11 09:00 237 1 gusting 6 24.4
2020-Aug-11 08:50 232 2 gusting 4 24.4
2020-Aug-11 08:30 237 3 gusting 6 24.7
2020-Aug-11 08:10 239 2 gusting 3 24.8
2020-Aug-11 08:00 359 1 gusting 4 24.9
2020-Aug-11 07:50 240 1 gusting 4 24.9
2020-Aug-11 07:30 239 2 gusting 6 25.1
2020-Aug-11 07:20 174 2 gusting 6 25.2
2020-Aug-11 07:10 359 3 gusting 6 25.3
2020-Aug-11 06:50 359 4 gusting 4 25.5
2020-Aug-11 06:30 359 3 gusting 4 25.9
2020-Aug-11 06:20 233 1 gusting 6 26.0
2020-Aug-11 06:10 359 3 gusting 6 26.1
2020-Aug-11 06:00 359 4 gusting 6 26.2
2020-Aug-11 05:50 359 1 gusting 4 26.2
2020-Aug-11 05:30 359 2 gusting 8 26.6
2020-Aug-11 05:20 359 1 gusting 4 26.8
2020-Aug-11 05:10 131 1 gusting 4 26.9
2020-Aug-11 05:00 359 4 gusting 6 27.1
2020-Aug-11 04:50 359 1 gusting 3 27.2
2020-Aug-11 04:30 359 4 gusting 4 27.4
2020-Aug-11 04:20 359 1 gusting 5 27.4
2020-Aug-11 04:10 174 3 gusting 4 27.5
2020-Aug-11 03:50 359 1 gusting 5 27.7
2020-Aug-11 03:30 359 2 gusting 4 27.8
2020-Aug-11 03:20 228 2 gusting 4 27.8
2020-Aug-11 03:10 359 2 gusting 6 27.9
2020-Aug-11 03:00 160 1 gusting 5 28.1
2020-Aug-11 02:50 359 0 gusting 5 28.2
2020-Aug-11 02:30 359 2 gusting 5 28.4
2020-Aug-11 02:20 359 3 gusting 6 28.7
2020-Aug-11 02:10 359 1 gusting 6 28.8
2020-Aug-11 02:00 359 3 gusting 3 28.9
2020-Aug-11 01:50 359 1 gusting 6 28.9
2020-Aug-11 01:30 232 1 gusting 6 28.8
2020-Aug-11 01:20 239 4 gusting 8 28.9
2020-Aug-11 01:10 231 2 gusting 7 29.1
2020-Aug-11 01:00 241 3 gusting 11 29.2
2020-Aug-11 00:50 239 1 gusting 10 29.3
2020-Aug-11 00:30 232 4 gusting 9 29.4
2020-Aug-11 00:20 170 3 gusting 9 29.6
2020-Aug-11 00:10 164 1 gusting 11 29.8
2020-Aug-11 00:00 359 2 gusting 7 30.0
2020-Aug-10 23:50 242 3 gusting 10 30.2
2020-Aug-10 23:30 359 4 gusting 9 30.7
2020-Aug-10 23:20 359 3 gusting 9 30.8
2020-Aug-10 23:10 359 2 gusting 11 31.2
2020-Aug-10 23:00 359 2 gusting 9 31.7
2020-Aug-10 22:50 359 3 gusting 9 32.7
2020-Aug-10 22:30 359 0 gusting 8 33.2
2020-Aug-10 22:20 359 3 gusting 8 33.3
2020-Aug-10 22:10 055 3 gusting 6 33.3
2020-Aug-10 22:00 016 4 gusting 10 33.4
2020-Aug-10 21:50 359 2 gusting 7 33.4
2020-Aug-10 21:30 359 7 gusting 11 33.3
2020-Aug-10 21:20 021 4 gusting 12 33.7
2020-Aug-10 21:10 244 2 gusting 9 33.6
2020-Aug-10 21:00 162 4 gusting 7 33.9
2020-Aug-10 20:50 359 2 gusting 12 33.7
2020-Aug-10 20:30 149 1 gusting 6 33.2
2020-Aug-10 20:20 359 1 gusting 9 33.2
2020-Aug-10 20:10 359 3 gusting 10 33.4
2020-Aug-10 20:00 046 3 gusting 8 33.1
2020-Aug-10 19:50 014 6 gusting 10 33.4
2020-Aug-10 19:30 359 2 gusting 11 32.9
2020-Aug-10 19:20 359 3 gusting 11 33.0
2020-Aug-10 19:10 023 5 gusting 11 33.1
2020-Aug-10 19:00 231 1 gusting 6 32.9
2020-Aug-10 18:50 359 4 gusting 13 33.1
2020-Aug-10 18:30 068 3 gusting 6 33.3
2020-Aug-10 18:20 010 4 gusting 9 33.4
2020-Aug-10 18:10 031 2 gusting 6 32.8
2020-Aug-10 18:00 359 1 gusting 11 32.5